| time (UTC) | temp F | wind direction | speed MPH | gust MPH | rain 1hr in | rain 24hr in | rain mn in | humidity % | barometer mb |
| 20260902181552 | 67 | 105 | 6.0 | 10.0 | 0.00 | 0.02 | 0.02 | 93 | 1018.1 |
| 20260902180052 | 66 | 148 | 1.0 | 8.0 | 0.00 | 0.02 | 0.02 | 94 | 1018.5 |
| 20260902174551 | 66 | 163 | 4.0 | 11.0 | 0.00 | 0.02 | 0.02 | 94 | 1018.2 |
| 20260902173056 | 65 | 144 | 5.0 | 13.0 | 0.01 | 0.02 | 0.02 | 96 | 1018.3 |
| 20260902171603 | 65 | 139 | 3.0 | 10.0 | 0.01 | 0.02 | 0.02 | 97 | 1018.1 |
| 20260902170050 | 64 | 82 | 1.0 | 5.0 | 0.01 | 0.02 | 0.02 | 98 | 1018.7 |
| 20260902164600 | 64 | 205 | 0.0 | 0.0 | 0.01 | 0.02 | 0.02 | 97 | 1018.8 |
| 20260902163049 | 64 | 163 | 0.0 | 10.0 | 0.00 | 0.01 | 0.01 | 97 | 1018.2 |
| 20260902161548 | 64 | 138 | 0.0 | 8.0 | 0.00 | 0.01 | 0.01 | 97 | 1018.6 |
| 20260902160051 | 64 | 136 | 2.0 | 8.0 | 0.01 | 0.01 | 0.01 | 97 | 1018.4 |
| 20260902154554 | 64 | 148 | 2.0 | 8.0 | 0.01 | 0.01 | 0.01 | 97 | 1018.8 |
| 20260902153046 | 64 | 173 | 0.0 | 2.0 | 0.01 | 0.01 | 0.01 | 97 | 1018.9 |
| 20260902151548 | 64 | 102 | 1.0 | 10.0 | 0.01 | 0.01 | 0.01 | 97 | 1018.4 |
| 20260902150046 | 64 | 128 | 3.0 | 9.0 | 0.00 | 0.00 | 0.00 | 96 | 1018.7 |
| 20260902144545 | 64 | 122 | 2.0 | 10.0 | 0.00 | 0.01 | 0.00 | 96 | 1019.0 |
| 20260902143044 | 64 | 187 | 0.0 | 6.0 | 0.00 | 0.01 | 0.00 | 96 | 1019.2 |
| 20260902141544 | 64 | 117 | 0.0 | 1.0 | 0.00 | 0.01 | 0.00 | 96 | 1019.0 |
| 20260902140043 | 64 | 144 | 1.0 | 7.0 | 0.00 | 0.01 | 0.00 | 96 | 1018.9 |
| 20260902134543 | 64 | 134 | 0.0 | 4.0 | 0.00 | 0.01 | 0.00 | 96 | 1019.0 |
| 20260902133042 | 64 | 144 | 0.0 | 3.0 | 0.00 | 0.01 | 0.00 | 96 | 1018.7 |
| 20260902131602 | 64 | 146 | 0.0 | 7.0 | 0.00 | 0.01 | 0.00 | 96 | 1018.9 |
| 20260902130052 | 64 | 140 | 1.0 | 5.0 | 0.00 | 0.01 | 0.00 | 96 | 1019.0 |
| 20260902124541 | 64 | 167 | 0.0 | 3.0 | 0.00 | 0.01 | 0.00 | 96 | 1019.2 |
| 20260902123039 | 64 | 180 | 0.0 | 5.0 | 0.00 | 0.01 | 0.00 | 96 | 1018.8 |
| 20260902121545 | 64 | 142 | 0.0 | 5.0 | 0.00 | 0.01 | 0.00 | 96 | 1018.9 |
| 20260902120037 | 64 | 137 | 1.0 | 4.0 | 0.00 | 0.01 | 0.00 | 96 | 1018.8 |
| 20260902114536 | 64 | 142 | 0.0 | 3.0 | 0.00 | 0.07 | 0.00 | 96 | 1018.7 |
| 20260902113035 | 64 | 140 | 0.0 | 5.0 | 0.00 | 0.07 | 0.00 | 96 | 1018.5 |
| 20260902111541 | 64 | 134 | 1.0 | 5.0 | 0.00 | 0.07 | 0.00 | 96 | 1018.3 |
| 20260902110043 | 64 | 112 | 1.0 | 9.0 | 0.00 | 0.07 | 0.00 | 95 | 1018.3 |
| 20260902104539 | 64 | 130 | 1.0 | 10.0 | 0.00 | 0.10 | 0.00 | 95 | 1018.6 |
| 20260902103037 | 64 | 117 | 1.0 | 11.0 | 0.00 | 0.10 | 0.00 | 95 | 1018.8 |
| 20260902101531 | 64 | 134 | 3.0 | 8.0 | 0.00 | 0.10 | 0.00 | 95 | 1018.8 |
| 20260902100031 | 64 | 144 | 3.0 | 8.0 | 0.00 | 0.10 | 0.00 | 95 | 1018.5 |
| 20260902094528 | 65 | 114 | 2.0 | 11.0 | 0.00 | 0.25 | 0.00 | 94 | 1018.7 |
| 20260902093036 | 65 | 101 | 1.0 | 7.0 | 0.00 | 0.25 | 0.00 | 95 | 1018.4 |
| 20260902091527 | 65 | 123 | 0.0 | 5.0 | 0.00 | 0.25 | 0.00 | 95 | 1018.4 |
| 20260902090025 | 65 | 123 | 0.0 | 4.0 | 0.00 | 0.25 | 0.00 | 95 | 1018.5 |
| 20260902084524 | 66 | 129 | 0.0 | 4.0 | 0.00 | 0.37 | 0.00 | 95 | 1018.2 |
| 20260902083032 | 66 | 119 | 2.0 | 7.0 | 0.00 | 0.37 | 0.00 | 95 | 1018.3 |
| 20260902081524 | 66 | 128 | 3.0 | 7.0 | 0.00 | 0.37 | 0.00 | 95 | 1018.2 |
| 20260902080025 | 66 | 146 | 1.0 | 5.0 | 0.00 | 0.37 | 0.00 | 95 | 1018.2 |
| 20260902074518 | 66 | 142 | 3.0 | 7.0 | 0.00 | 0.43 | 0.00 | 95 | 1018.2 |
| 20260902073028 | 66 | 129 | 2.0 | 6.0 | 0.00 | 0.43 | 0.00 | 96 | 1018.1 |
| 20260902071518 | 67 | 138 | 0.0 | 3.0 | 0.00 | 0.43 | 0.00 | 96 | 1017.9 |
| 20260902070016 | 67 | 139 | 0.0 | 5.0 | 0.00 | 0.43 | 0.00 | 96 | 1018.1 |
| 20260902064516 | 67 | 147 | 0.0 | 0.0 | 0.00 | 0.43 | 0.00 | 96 | 1018.2 |
| 20260902063017 | 67 | 117 | 0.0 | 4.0 | 0.00 | 0.43 | 0.00 | 96 | 1018.3 |
| 20260902061515 | 67 | 140 | 0.0 | 2.0 | 0.00 | 0.43 | 0.00 | 97 | 1018.2 |
| 20260902060017 | 67 | 157 | 0.0 | 6.0 | 0.00 | 0.43 | 0.00 | 97 | 1018.1 |
| 20260902054521 | 67 | 123 | 0.0 | 0.0 | 0.00 | 0.43 | 0.00 | 97 | 1018.1 |
| 20260902053011 | 67 | 122 | 0.0 | 4.0 | 0.00 | 0.43 | 0.00 | 97 | 1017.9 |
| 20260902051510 | 66 | 128 | 2.0 | 5.0 | 0.00 | 0.43 | 0.00 | 97 | 1017.8 |
| 20260902050009 | 66 | 141 | 0.0 | 0.0 | 0.00 | 0.43 | 0.00 | 98 | 1017.8 |
| 20260902044507 | 66 | 141 | 0.0 | 0.0 | 0.00 | 0.43 | 0.00 | 98 | 1017.6 |
| 20260902043008 | 67 | 141 | 0.0 | 0.0 | 0.00 | 0.43 | 0.00 | 98 | 1017.8 |
| 20260902041505 | 66 | 141 | 0.0 | 1.0 | 0.00 | 0.43 | 0.00 | 98 | 1017.6 |
| 20260902040006 | 66 | 141 | 0.0 | 2.0 | 0.00 | 0.43 | 0.43 | 98 | 1017.4 |
| 20260902034502 | 66 | 141 | 0.0 | 1.0 | 0.00 | 0.43 | 0.43 | 98 | 1017.4 |
| 20260902033001 | 66 | 141 | 0.0 | 0.0 | 0.00 | 0.43 | 0.43 | 99 | 1017.4 |
| 20260902031501 | 66 | 141 | 0.0 | 0.0 | 0.00 | 0.43 | 0.43 | 99 | 1017.4 |
| 20260902030104 | 66 | 141 | 0.0 | 0.0 | 0.00 | 0.43 | 0.43 | 98 | 1017.3 |
| 20260902024606 | 66 | 141 | 0.0 | 2.0 | 0.00 | 0.43 | 0.43 | 98 | 1017.4 |
| 20260902023101 | 66 | 141 | 0.0 | 0.0 | 0.00 | 0.43 | 0.43 | 98 | 1017.4 |
| 20260902021600 | 66 | 140 | 0.0 | 4.0 | 0.00 | 0.43 | 0.43 | 98 | 1017.3 |
| 20260902014558 | 67 | 144 | 0.0 | 0.0 | 0.00 | 0.43 | 0.43 | 97 | 1017.3 |
| 20260902013057 | 67 | 144 | 0.0 | 3.0 | 0.00 | 0.43 | 0.43 | 97 | 1017.5 |
| 20260902011557 | 67 | 146 | 0.0 | 0.0 | 0.00 | 0.43 | 0.43 | 97 | 1017.3 |
| 20260902010056 | 67 | 146 | 0.0 | 0.0 | 0.00 | 0.43 | 0.43 | 97 | 1017.0 |
| 20260902004556 | 67 | 146 | 0.0 | 0.0 | 0.00 | 0.43 | 0.43 | 96 | 1016.7 |
| 20260902003059 | 68 | 148 | 0.0 | 0.0 | 0.00 | 0.43 | 0.43 | 96 | 1016.4 |
| 20260902001555 | 68 | 148 | 0.0 | 0.0 | 0.00 | 0.43 | 0.43 | 95 | 1016.4 |
| 20260902000114 | 68 | 148 | 0.0 | 0.0 | 0.00 | 0.43 | 0.43 | 94 | 1016.2 |
| 20260901234556 | 68 | 148 | 0.0 | 1.0 | 0.00 | 0.43 | 0.43 | 94 | 1016.2 |
| 20260901233054 | 68 | 148 | 0.0 | 2.0 | 0.00 | 0.43 | 0.43 | 94 | 1016.2 |
| 20260901231553 | 69 | 146 | 0.0 | 5.0 | 0.00 | 0.43 | 0.43 | 94 | 1016.4 |
| 20260901230107 | 69 | 135 | 0.0 | 1.0 | 0.00 | 0.43 | 0.43 | 94 | 1016.4 |
| 20260901224553 | 69 | 135 | 0.0 | 0.0 | 0.00 | 0.43 | 0.43 | 93 | 1016.3 |
| 20260901223110 | 69 | 135 | 0.0 | 6.0 | 0.00 | 0.43 | 0.43 | 94 | 1016.1 |
| 20260901221551 | 69 | 171 | 0.0 | 1.0 | 0.00 | 0.43 | 0.43 | 94 | 1015.9 |
| 20260901220114 | 70 | 186 | 0.0 | 2.0 | 0.00 | 0.43 | 0.43 | 94 | 1015.9 |
| 20260901214550 | 70 | 141 | 0.0 | 2.0 | 0.00 | 0.43 | 0.43 | 93 | 1016.0 |
| 20260901213112 | 70 | 148 | 0.0 | 3.0 | 0.00 | 0.43 | 0.43 | 93 | 1016.1 |
| 20260901211649 | 70 | 154 | 0.0 | 0.0 | 0.00 | 0.43 | 0.43 | 92 | 1016.2 |
| 20260901210059 | 71 | 156 | 0.0 | 3.0 | 0.00 | 0.43 | 0.43 | 92 | 1015.9 |
| 20260901204548 | 71 | 228 | 0.0 | 2.0 | 0.00 | 0.43 | 0.43 | 93 | 1015.7 |
| 20260901203100 | 71 | 228 | 0.0 | 4.0 | 0.00 | 0.43 | 0.43 | 93 | 1015.7 |
| 20260901201547 | 71 | 209 | 0.0 | 3.0 | 0.00 | 0.43 | 0.43 | 94 | 1015.7 |
| 20260901200047 | 70 | 226 | 0.0 | 4.0 | 0.00 | 0.43 | 0.43 | 94 | 1015.8 |
| 20260901194550 | 70 | 196 | 0.0 | 3.0 | 0.00 | 0.44 | 0.43 | 94 | 1015.9 |
| 20260901193053 | 70 | 199 | 0.0 | 1.0 | 0.00 | 0.44 | 0.43 | 94 | 1016.0 |
| 20260901191546 | 71 | 196 | 0.0 | 1.0 | 0.00 | 0.44 | 0.43 | 94 | 1015.8 |
| 20260901190046 | 71 | 193 | 0.0 | 3.0 | 0.00 | 0.44 | 0.43 | 93 | 1015.6 |
| 20260901184547 | 71 | 121 | 0.0 | 1.0 | 0.00 | 0.44 | 0.43 | 92 | 1015.6 |
| 20260901183049 | 72 | 112 | 0.0 | 0.0 | 0.00 | 0.44 | 0.43 | 92 | 1015.4 |